| time (UTC) | temp F | wind direction | speed MPH | gust MPH | rain 1hr in | rain 24hr in | rain mn in | humidity % | barometer mb |
| 20260506020330 | 44 | 95 | 0.0 | 4.0 | 0.00 | 0.00 | 0.00 | 75 | 1014.4 |
| 20260506013330 | 44 | 84 | 1.0 | 3.0 | 0.00 | 0.00 | 0.00 | 73 | 1014.6 |
| 20260506010331 | 44 | 87 | 0.0 | 5.0 | 0.00 | 0.00 | 0.00 | 74 | 1014.5 |
| 20260506003330 | 44 | 217 | 2.0 | 5.0 | 0.00 | 0.00 | 0.00 | 78 | 1014.7 |
| 20260506001723 | 44 | 159 | 1.0 | 5.0 | 0.00 | 0.00 | 0.00 | 78 | 1014.7 |
| 20260505233329 | 44 | 223 | 1.0 | 5.0 | 0.00 | 0.00 | 0.00 | 79 | 1014.9 |
| 20260505230343 | 44 | 166 | 1.0 | 5.0 | 0.00 | 0.00 | 0.00 | 80 | 1014.9 |
| 20260505223330 | 45 | 46 | 1.0 | 7.0 | 0.00 | 0.00 | 0.00 | 80 | 1014.9 |
| 20260505220332 | 45 | 78 | 3.0 | 13.0 | 0.00 | 0.00 | 0.00 | 79 | 1015.0 |
| 20260505213333 | 46 | 165 | 1.0 | 9.0 | 0.00 | 0.00 | 0.00 | 79 | 1014.8 |
| 20260505210330 | 46 | 46 | 3.0 | 11.0 | 0.00 | 0.00 | 0.00 | 80 | 1014.7 |
| 20260505203329 | 46 | 121 | 4.0 | 11.0 | 0.00 | 0.00 | 0.00 | 79 | 1014.4 |
| 20260505201723 | 47 | 86 | 3.0 | 12.0 | 0.00 | 0.00 | 0.00 | 80 | 1014.5 |
| 20260505193328 | 48 | 91 | 1.0 | 9.0 | 0.00 | 0.00 | 0.00 | 80 | 1014.3 |
| 20260505190328 | 49 | 5 | 2.0 | 8.0 | 0.00 | 0.00 | 0.00 | 79 | 1014.1 |
| 20260505180322 | 50 | 78 | 2.0 | 9.0 | 0.00 | 0.00 | 0.00 | 79 | 1013.7 |
| 20260505174713 | 51 | 61 | 1.0 | 8.0 | 0.00 | 0.00 | 0.00 | 78 | 1013.8 |
| 20260505170334 | 52 | 54 | 1.0 | 4.0 | 0.00 | 0.00 | 0.00 | 74 | 1013.7 |
| 20260505163322 | 54 | 292 | 1.0 | 4.0 | 0.00 | 0.00 | 0.00 | 70 | 1013.6 |
| 20260505151710 | 54 | 355 | 1.0 | 4.0 | 0.00 | 0.00 | 0.00 | 66 | 1013.8 |
| 20260505140320 | 53 | 47 | 2.0 | 4.0 | 0.00 | 0.00 | 0.00 | 68 | 1013.8 |
| 20260505123318 | 53 | 28 | 2.0 | 9.0 | 0.00 | 0.00 | 0.00 | 66 | 1013.8 |
| 20260505120318 | 54 | 39 | 1.0 | 8.0 | 0.00 | 0.00 | 0.00 | 65 | 1013.7 |
| 20260505113318 | 54 | 47 | 2.0 | 6.0 | 0.00 | 0.00 | 0.00 | 66 | 1013.9 |
| 20260505110318 | 55 | 54 | 1.0 | 8.0 | 0.00 | 0.00 | 0.00 | 65 | 1014.0 |
| 20260505100319 | 55 | 45 | 2.0 | 10.0 | 0.00 | 0.00 | 0.00 | 64 | 1014.2 |
| 20260505093315 | 52 | 330 | 1.0 | 7.0 | 0.00 | 0.00 | 0.00 | 71 | 1014.1 |
| 20260505090316 | 54 | 0 | 2.0 | 8.0 | 0.00 | 0.00 | 0.00 | 73 | 1014.3 |
| 20260505084701 | 52 | 333 | 2.0 | 5.0 | 0.00 | 0.00 | 0.00 | 77 | 1014.3 |
| 20260505073317 | 48 | 18 | 1.0 | 4.0 | 0.00 | 0.00 | 0.00 | 88 | 1014.4 |
| 20260505070316 | 47 | 348 | 0.0 | 0.0 | 0.00 | 0.00 | 0.00 | 87 | 1014.5 |
| 20260505063317 | 45 | 302 | 0.0 | 0.0 | 0.00 | 0.00 | 0.00 | 90 | 1014.6 |
| 20260505060316 | 43 | 302 | 0.0 | 0.0 | 0.00 | 0.00 | 0.00 | 94 | 1014.6 |
| 20260505053314 | 39 | 302 | 0.0 | 0.0 | 0.00 | 0.00 | 0.00 | 95 | 1014.5 |
| 20260505050326 | 38 | 302 | 0.0 | 0.0 | 0.00 | 0.00 | 0.00 | 95 | 1014.3 |
| 20260505040313 | 38 | 302 | 0.0 | 0.0 | 0.00 | 0.00 | 0.00 | 94 | 1014.0 |
| 20260505034654 | 38 | 302 | 0.0 | 1.0 | 0.00 | 0.00 | 0.00 | 94 | 1014.1 |
| 20260505030310 | 39 | 302 | 0.0 | 0.0 | 0.00 | 0.00 | 0.00 | 93 | 1014.1 |
| 20260505023310 | 40 | 302 | 0.0 | 1.0 | 0.00 | 0.00 | 0.00 | 93 | 1014.3 |